[[{"header":{"parameterUnit":"m.s-1","parameterCategory":1,"la1":30.2992,"la2":30.254,"lo1":-89.0895,"lo2":-89.0443,"dy":0.0025,"dx":0.0025,"nx":19,"ny":19,"refTime":"2026-04-02T03:00:00:Z","depth":0,"parameterNumber":2,"parameterNumberName":"U-component_of_WINDS"},"data":[0,0,0,-4.7007,-4.7009,-4.7098,-4.7098,-4.7221,-4.7222,0,0,0,0,0,0,0,0,0,0,0,-4.6987,-4.6988,-4.7007,-4.7009,-4.7098,-4.7098,-4.7221,-4.7222,0,0,0,0,0,0,0,0,0,0,0,-4.6986,-4.6987,-4.6989,-4.701,-4.7098,-4.7098,-4.722,-4.715,0,0,0,0,0,0,0,0,0,0,-4.7063,-4.7049,-4.6987,-4.6989,-4.701,-4.7097,-4.7098,-4.7147,-4.7155,-4.7185,0,-4.7214,0,-4.722,-4.7231,-4.7231,0,0,0,-4.7005,-4.7043,-4.7062,-4.6989,-4.7011,-4.7097,-4.7057,-4.7151,-4.716,-4.7196,-4.7215,-4.722,-4.7222,-4.7232,-4.7233,-4.7423,-4.7424,0,0,-4.7,-4.7006,-4.7055,-4.7068,-4.7054,-4.7054,-4.7059,-4.7156,-4.7178,-4.7216,-4.7222,-4.7224,-4.7233,-4.7234,-4.7422,-4.7424,0,0,0,-4.6989,-4.7002,-4.7018,-4.7063,-4.7078,-4.7056,-4.7063,-4.7174,-4.7178,-4.7224,-4.7226,-4.7234,-4.7235,-4.7421,-4.7423,-4.7481,0,0,0,-4.6986,-4.6996,-4.7017,-4.7021,-4.7077,-4.7127,-4.7078,-4.7172,-4.7182,-4.7225,-4.7234,-4.7236,-4.742,-4.7422,-4.7477,-4.7507,0,0,0,-4.6979,-4.6995,-4.701,-4.7021,-4.7059,-4.7125,-4.7135,-4.7174,-4.7184,-4.7232,-4.7237,-4.7419,-4.7422,-4.7473,-4.7501,-4.7558,0,0,0,-4.6973,-4.706,-4.7011,-4.711,-4.7059,-4.7161,-4.7135,-4.7211,-4.7259,-4.7234,-4.742,-4.7423,-4.7472,-4.7497,-4.7554,-4.7606,-4.7628,0,0,-4.7086,-4.7074,-4.7132,-4.709,-4.7203,-4.7147,-4.7269,-4.7308,-4.7308,-4.7385,-4.739,-4.7478,-4.75,-4.7557,-4.7756,-4.7774,0,0,0,-4.717,-4.7211,-4.724,-4.7286,-4.7318,-4.7348,-4.7368,-4.7383,-4.7448,-4.7349,-4.7516,-4.7529,-4.7562,-4.7586,-4.7601,-4.7629,-4.7435,-4.7434,-4.7434,-4.7335,-4.7331,-4.7426,-4.7434,-4.7479,-4.75,-4.7536,-4.7559,-4.7541,-4.7582,-4.7603,-4.7725,-4.7753,-4.7765,-4.7794,-4.7632,-4.7632,-4.7633,-4.7633,-4.7499,-4.7556,-4.7533,-4.7616,-4.7612,-4.7682,-4.7707,-4.7692,-4.7757,-4.7707,-4.7736,-4.7681,-4.7784,-4.7809,-4.7637,-4.7636,-4.7636,-4.7635,-4.7635,-4.7605,-4.7632,-4.7649,-4.7717,-4.7769,-4.7775,-4.7838,-4.7833,-4.7827,-4.7856,-4.7878,-4.7877,-4.7874,-4.7868,-4.7868,-4.7869,-4.7869,-4.787,-4.787,-4.7707,-4.7725,-4.7779,-4.7823,-4.7852,-4.7891,-4.7915,-4.7944,-4.7975,-4.7965,-4.7965,-4.7943,-4.7796,-4.7758,-4.7876,-4.7875,-4.7874,-4.7874,-4.7873,-4.787,-4.7833,-4.7916,-4.7946,-4.7998,-4.8051,-4.8044,-4.8104,-4.8128,-4.816,-4.8133,-4.8026,-4.8013,-4.8001,-4.7969,-4.8134,-4.8134,-4.8134,-4.8134,-4.7958,-4.7952,-4.8036,-4.8085,-4.8132,-4.8135,-4.823,-4.8251,-4.8266,-4.828,-4.8256,-4.8215,-4.8203,-4.8197,-4.818,-4.815,-4.8358,-4.8359,-4.8359,-4.8057,-4.8056,-4.8137,-4.8152,-4.8193,-4.8228,-4.8317,-4.8374,-4.8384,-4.8368,-4.8291,-4.8282,-4.8215,-4.8194,-4.8172,-4.8147,-4.8092,0,0]},{"header":{"parameterUnit":"m.s-1","parameterCategory":1,"la1":30.2992,"la2":30.254,"lo1":-89.0895,"lo2":-89.0443,"dy":0.0025,"dx":0.0025,"nx":19,"ny":19,"refTime":"2026-04-02T03:00:00:Z","depth":0,"parameterNumber":3,"parameterNumberName":"V-component_of_WINDS"},"data":[0,0,0,2.9528,2.953,2.9652,2.9652,2.979,2.9791,0,0,0,0,0,0,0,0,0,0,0,2.9481,2.9482,2.9528,2.953,2.9652,2.9652,2.979,2.9791,0,0,0,0,0,0,0,0,0,0,0,2.9481,2.9482,2.9482,2.9531,2.9652,2.9653,2.9789,2.9704,0,0,0,0,0,0,0,0,0,0,2.9589,2.9535,2.9481,2.9482,2.9532,2.9652,2.9653,2.97,2.9709,2.9727,0,2.974,0,2.9768,2.9799,2.9799,0,0,0,2.9538,2.9528,2.957,2.9482,2.9533,2.9651,2.9599,2.9706,2.9716,2.9739,2.9742,2.9748,2.977,2.98,2.98,2.988,2.988,0,0,2.9532,2.9497,2.9563,2.9576,2.9557,2.9595,2.9603,2.9712,2.9713,2.9743,2.9752,2.9772,2.9801,2.9801,2.988,2.988,0,0,0,2.9507,2.9492,2.9532,2.957,2.9594,2.9599,2.9607,2.9708,2.9724,2.9753,2.9774,2.9801,2.9803,2.988,2.988,2.9848,0,0,0,2.9503,2.9478,2.9529,2.9509,2.9591,2.9652,2.9601,2.9717,2.973,2.9773,2.9801,2.9804,2.988,2.988,2.9849,2.9838,0,0,0,2.9477,2.9475,2.9489,2.9507,2.9558,2.9652,2.9674,2.9721,2.9743,2.9799,2.9804,2.988,2.988,2.9849,2.984,2.985,0,0,0,2.9438,2.9456,2.9487,2.9516,2.9557,2.9631,2.9674,2.973,2.9775,2.9802,2.988,2.988,2.985,2.984,2.9851,2.9854,2.9851,0,0,2.9442,2.9456,2.9475,2.9507,2.9567,2.9615,2.9671,2.9744,2.978,2.9844,2.9847,2.9848,2.984,2.985,2.9849,2.9847,0,0,0,2.9465,2.9479,2.9502,2.9544,2.9602,2.9651,2.9719,2.9747,2.9804,2.9806,2.9856,2.9852,2.9859,2.9862,2.9861,2.987,2.9879,2.9879,2.9879,2.942,2.9467,2.9504,2.9567,2.9607,2.9679,2.9716,2.9766,2.98,2.9811,2.983,2.9824,2.9826,2.9825,2.9834,2.9835,2.9835,2.9835,2.9835,2.9431,2.9459,2.9507,2.9559,2.961,2.9654,2.9725,2.9748,2.9798,2.9812,2.9822,2.9834,2.9821,2.9832,2.9833,2.9833,2.9833,2.9834,2.9834,2.9407,2.9429,2.9464,2.9531,2.9578,2.9641,2.9687,2.973,2.9771,2.978,2.9807,2.9808,2.9815,2.979,2.979,2.979,2.979,2.979,2.979,2.937,2.941,2.9444,2.9508,2.9542,2.9593,2.9667,2.9702,2.9751,2.9779,2.978,2.9814,2.9811,2.981,2.979,2.979,2.979,2.979,2.979,2.9364,2.9373,2.9425,2.946,2.9541,2.9585,2.9641,2.9708,2.9743,2.9765,2.9798,2.9789,2.9805,2.9807,2.9807,2.9787,2.9787,2.9787,2.9787,2.9345,2.9359,2.9424,2.9476,2.9532,2.9589,2.9648,2.9706,2.9768,2.9793,2.9802,2.9805,2.9804,2.9822,2.9823,2.9823,2.9808,2.9808,2.9809,2.9346,2.9367,2.9408,2.947,2.9537,2.9594,2.9651,2.971,2.9781,2.981,2.9814,2.9813,2.9818,2.9817,2.9845,2.9846,2.9848,0,0]}]]